Regional Weather Roundup
Issued by NWS Sioux Falls, SD

Home | Current Version | Previous Version | Text Only | Print | Product List | Glossary On
Versions: 1 2 3 4 5 6 7 8 9 10 11 12 13 14 15 16 17 18 19 20 21 22 23 24 25 26 27 28 29 30 31 32 33 34 35 36 37 38 39 40 41 42 43 44 45 46 47 48 49 50
310
ASUS43 KFSD 261002
RWRFSD

WEATHER ROUNDUP FOR SE SOUTH DAKOTA/SW MINNESOTA/NW IOWA
NATIONAL WEATHER SERVICE SIOUX FALLS SD
500 AM CDT MON JUN 26 2017

NOTE: "FAIR" INDICATES FEW OR NO CLOUDS BELOW 12,000 FEET WITH NO
SIGNIFICANT WEATHER AND OR OBSTRUCTIONS TO VISIBILITY.


SDZ038>040-050-052>070-261100-
SOUTHEAST SOUTH DAKOTA

CITY           SKY/WX    TMP DP  RH WIND       PRES   REMARKS
BROOKINGS      CLEAR     47  46  97 CALM      30.21S
CHAMBERLAIN    CLEAR     49  46  89 CALM      30.22R
HURON          CLEAR     45  45 100 N3        30.21S
MADISON        FAIR      45  45 100 N5        30.21R
MITCHELL       CLEAR     51  49  92 NW3       30.21R
SIOUX FALLS    PTCLDY    52  52 100 CALM      30.19R
WINNER         FAIR      49  44  83 E5        30.21S
YANKTON        PTCLDY    54  50  86 SE6       30.19F
$$

MNZ071-072-080-081-089-090-097-098-261100-
SOUTHWEST MINNESOTA

CITY           SKY/WX    TMP DP  RH WIND       PRES   REMARKS
FAIRMONT       MOCLDY    54  50  86 NW7       30.19S
JACKSON        CLEAR     50  48  93 CALM      30.20S
LUVERNE        CLEAR     46  45  93 CALM      30.21R
MARSHALL       CLEAR     47  44  90 NW8       30.20S
MONTEVIDEO     CLEAR     46  43  87 N5        30.20S
PIPESTONE      CLEAR     52  48  87 N3        30.20S
REDWOOD FALLS  CLEAR     49  44  83 NW6       30.18S
TRACY          CLEAR     52  47  83 W6        30.20S
WINDOM         CLEAR     48  46  93 CALM      30.19F
WORTHINGTON    CLEAR     49  47  93 NW7       30.20S
$$

IAZ001>003-012>014-020>022-031-032-NEZ013-014-SDZ071-261100-
NORTHWEST IOWA

CITY           SKY/WX    TMP DP  RH WIND       PRES   REMARKS
CHEROKEE       CLOUDY    52  52 100 S3        30.19F
DENISON        LGT RAIN  54  52  94 E6        30.23F
ESTHERVILLE    CLEAR     50  50 100 NW5       30.19R
LE MARS        CLOUDY    54  50  87 CALM      30.19F
ORANGE CITY    MOCLDY    54  54 100 S3        30.18F
SHELDON        PTCLDY    52  52 100 CALM      30.18F
SIOUX CITY     CLOUDY    56  52  86 S9        30.19R
SPENCER        PTCLDY    52  50  93 W3        30.19S
STORM LAKE     CLOUDY    54  52  94 S7        30.19F
$$

ABBREVIATIONS USED IN REMARKS
   TC - TEMPERATURE IN CELSIUS
  WCI - WIND CHILL INDEX
   HX - HEAT INDEX
  VSB - VISIBILITY





USA.gov is the U.S. government's official web portal to all federal, state and local government web resources and services.